When you browse on this site, cookies collect data to enhance your experience and personalize the content and advertising you see.
Visit our Privacy Policy to learn more. By continuing to use the site, you agree to this use of cookies and data.
  • In Hungary
  • List of Countries
  • For 7 days
  • Water Temperature
  • Satellite Maps
  • Weather Map
  • News
  • Weather Widgets
  • user-avatar
    Login

    Hourly Weather Krzemionki

    Today, 22 May, Wednesday

    Time Temperature Precipitation Wind Pressure Humidity
    00:00 +12°C° 0.5 mm 5 mps 721 mmHg 92%
    01:00 +13°C° 0 mm 5 mps 720 mmHg 94%
    02:00 +13°C° 0.6 mm 5 mps 720 mmHg 94%
    03:00 +13°C° 0.6 mm 4 mps 721 mmHg 94%
    04:00 +13°C° 0.6 mm 4 mps 721 mmHg 95%
    05:00 +13°C° 0.4 mm 4 mps 721 mmHg 93%
    06:00 +13°C° 0.4 mm 5 mps 721 mmHg 91%
    07:00 +13°C° 0.4 mm 5 mps 721 mmHg 89%
    08:00 +14°C° 0.3 mm 5 mps 721 mmHg 87%
    09:00 +14°C° 0.3 mm 4 mps 721 mmHg 86%
    10:00 +14°C° 0.3 mm 4 mps 722 mmHg 84%
    11:00 +15°C° 0.7 mm 4 mps 722 mmHg 83%
    12:00 +15°C° 0.7 mm 4 mps 722 mmHg 81%
    13:00 +17°C° 0.7 mm 3 mps 722 mmHg 80%
    14:00 +17°C° 1.5 mm 4 mps 722 mmHg 80%
    15:00 +16°C° 1.5 mm 5 mps 723 mmHg 80%
    16:00 +16°C° 1.5 mm 5 mps 723 mmHg 80%
    17:00 +16°C° 2.3 mm 5 mps 723 mmHg 84%
    18:00 +15°C° 2.3 mm 6 mps 723 mmHg 87%
    19:00 +14°C° 2.3 mm 6 mps 723 mmHg 91%
    20:00 +14°C° 2.2 mm 6 mps 723 mmHg 92%
    21:00 +12°C° 2.2 mm 7 mps 724 mmHg 93%
    22:00 +12°C° 2.2 mm 7 mps 724 mmHg 94%
    23:00 +13°C° 1.1 mm 6 mps 724 mmHg 94%

    Tomorrow, 23 May, Thursday

    Time Temperature Precipitation Wind Pressure Humidity
    00:00 +13°C° 1.1 mm 6 mps 725 mmHg 94%
    01:00 +13°C° 1.1 mm 6 mps 725 mmHg 94%
    02:00 +13°C° 0.6 mm 6 mps 725 mmHg 94%
    03:00 +13°C° 0.6 mm 6 mps 725 mmHg 94%
    04:00 +13°C° 0.6 mm 6 mps 726 mmHg 94%
    05:00 +11°C° 0.6 mm 6 mps 726 mmHg 94%
    06:00 +11°C° 0.6 mm 6 mps 726 mmHg 94%
    07:00 +11°C° 0.6 mm 6 mps 727 mmHg 94%
    08:00 +11°C° 0.6 mm 6 mps 727 mmHg 94%
    09:00 +11°C° 0.6 mm 6 mps 727 mmHg 94%
    10:00 +10°C° 0.6 mm 6 mps 728 mmHg 93%
    11:00 +10°C° 0.4 mm 6 mps 728 mmHg 93%
    12:00 +10°C° 0.4 mm 6 mps 728 mmHg 93%
    13:00 +10°C° 0.4 mm 6 mps 728 mmHg 93%
    14:00 +10°C° 0.4 mm 5 mps 728 mmHg 93%
    15:00 +10°C° 0.4 mm 5 mps 729 mmHg 93%
    16:00 +10°C° 0.4 mm 5 mps 729 mmHg 93%
    17:00 +10°C° 0.2 mm 5 mps 729 mmHg 93%
    18:00 +11°C° 0.2 mm 4 mps 729 mmHg 92%
    19:00 +11°C° 0.2 mm 4 mps 729 mmHg 92%
    20:00 +11°C° 0.1 mm 4 mps 729 mmHg 91%
    21:00 +11°C° 0.1 mm 4 mps 729 mmHg 91%
    22:00 +11°C° 0.1 mm 4 mps 730 mmHg 90%
    23:00 +11°C° 0 mm 3 mps 730 mmHg 90%

    Day after tomorrow, 24 May, Friday

    Time Temperature Precipitation Wind Pressure Humidity
    00:00 +10°C° 0 mm 3 mps 730 mmHg 90%
    01:00 +10°C° 0 mm 3 mps 730 mmHg 90%
    02:00 +10°C° 0.1 mm 3 mps 730 mmHg 89%
    03:00 +10°C° 0.1 mm 3 mps 730 mmHg 89%
    04:00 +9°C° 0.1 mm 2 mps 730 mmHg 89%
    05:00 +10°C° 0.1 mm 2 mps 730 mmHg 86%
    06:00 +10°C° 0.1 mm 2 mps 730 mmHg 83%
    07:00 +10°C° 0.1 mm 3 mps 730 mmHg 80%
    08:00 +12°C° 0 mm 3 mps 730 mmHg 73%
    09:00 +13°C° 0 mm 3 mps 730 mmHg 66%
    10:00 +16°C° 0 mm 3 mps 730 mmHg 58%
    11:00 +16°C° 0 mm 3 mps 730 mmHg 57%
    12:00 +17°C° 0 mm 3 mps 730 mmHg 56%
    13:00 +18°C° 0 mm 3 mps 730 mmHg 54%
    14:00 +18°C° 0 mm 3 mps 729 mmHg 55%
    15:00 +18°C° 0 mm 3 mps 729 mmHg 56%
    16:00 +19°C° 0 mm 3 mps 729 mmHg 57%
    17:00 +17°C° 0 mm 2 mps 728 mmHg 63%
    18:00 +16°C° 0 mm 2 mps 728 mmHg 69%
    19:00 +15°C° 0 mm 1 mps 728 mmHg 74%
    20:00 +14°C° 0 mm 1 mps 728 mmHg 78%
    21:00 +13°C° 0 mm 1 mps 728 mmHg 81%
    22:00 +11°C° 0 mm 1 mps 729 mmHg 85%
    23:00 +11°C° 0 mm 1 mps 729 mmHg 86%

    25 May, Saturday

    Time Temperature Precipitation Wind Pressure Humidity
    00:00 +11°C° 0 mm 1 mps 728 mmHg 87%
    01:00 +10°C° 0 mm 1 mps 728 mmHg 89%
    02:00 +10°C° 0 mm 1 mps 728 mmHg 89%
    03:00 +10°C° 0 mm 1 mps 728 mmHg 90%
    04:00 +10°C° 0 mm 1 mps 728 mmHg 91%
    05:00 +11°C° 0 mm 1 mps 728 mmHg 86%
    06:00 +13°C° 0 mm 2 mps 728 mmHg 81%
    07:00 +15°C° 0 mm 2 mps 729 mmHg 76%
    08:00 +17°C° 0 mm 2 mps 729 mmHg 70%
    09:00 +18°C° 0 mm 2 mps 729 mmHg 64%
    10:00 +19°C° 0 mm 3 mps 729 mmHg 58%
    11:00 +20°C° 0.1 mm 3 mps 729 mmHg 57%
    12:00 +21°C° 0.1 mm 3 mps 729 mmHg 55%
    13:00 +21°C° 0.1 mm 4 mps 729 mmHg 54%
    14:00 +21°C° 0 mm 4 mps 728 mmHg 55%
    15:00 +21°C° 0 mm 4 mps 728 mmHg 56%
    16:00 +21°C° 0 mm 4 mps 728 mmHg 58%
    17:00 +19°C° 0 mm 3 mps 728 mmHg 64%
    18:00 +18°C° 0 mm 3 mps 728 mmHg 70%
    19:00 +16°C° 0 mm 2 mps 728 mmHg 76%
    20:00 +15°C° 0 mm 2 mps 728 mmHg 79%
    21:00 +14°C° 0 mm 2 mps 729 mmHg 81%
    22:00 +13°C° 0 mm 1 mps 729 mmHg 84%
    23:00 +12°C° 0 mm 1 mps 729 mmHg 84%

    26 May, Sunday

    Time Temperature Precipitation Wind Pressure Humidity
    00:00 +12°C° 0 mm 1 mps 729 mmHg 85%
    01:00 +12°C° 0 mm 2 mps 729 mmHg 85%
    02:00 +11°C° 0 mm 1 mps 729 mmHg 87%
    03:00 +11°C° 0 mm 1 mps 729 mmHg 89%
    04:00 +10°C° 0 mm 1 mps 729 mmHg 92%
    05:00 +10°C° 0 mm 2 mps 729 mmHg 87%
    06:00 +13°C° 0 mm 2 mps 729 mmHg 82%
    07:00 +13°C° 0 mm 3 mps 729 mmHg 77%
    08:00 +14°C° 0 mm 4 mps 729 mmHg 72%
    09:00 +17°C° 0 mm 4 mps 729 mmHg 67%
    10:00 +17°C° 0 mm 5 mps 729 mmHg 62%
    11:00 +17°C° 0 mm 5 mps 728 mmHg 59%
    12:00 +19°C° 0 mm 5 mps 728 mmHg 56%
    13:00 +20°C° 0 mm 5 mps 728 mmHg 53%
    14:00 +20°C° 0 mm 5 mps 728 mmHg 53%
    15:00 +20°C° 0 mm 5 mps 728 mmHg 54%
    16:00 +20°C° 0 mm 5 mps 728 mmHg 54%
    17:00 +18°C° 0 mm 4 mps 728 mmHg 59%
    18:00 +17°C° 0 mm 3 mps 728 mmHg 64%
    19:00 +14°C° 0 mm 3 mps 728 mmHg 69%
    20:00 +14°C° 0 mm 2 mps 728 mmHg 71%
    21:00 +13°C° 0 mm 2 mps 728 mmHg 74%
    22:00 +12°C° 0 mm 2 mps 728 mmHg 76%
    23:00 +12°C° 0 mm 2 mps 728 mmHg 79%

    27 May, Monday

    Time Temperature Precipitation Wind Pressure Humidity
    00:00 +10°C° 0 mm 2 mps 728 mmHg 81%
    01:00 +10°C° 0 mm 2 mps 728 mmHg 84%
    02:00 +10°C° 0 mm 2 mps 728 mmHg 86%
    03:00 +10°C° 0 mm 1 mps 728 mmHg 87%
    04:00 +10°C° 0 mm 1 mps 728 mmHg 88%
    05:00 +12°C° 0 mm 1 mps 728 mmHg 82%
    06:00 +14°C° 0 mm 2 mps 728 mmHg 76%
    07:00 +16°C° 0 mm 2 mps 728 mmHg 70%
    08:00 +18°C° 0 mm 2 mps 728 mmHg 65%
    09:00 +19°C° 0 mm 3 mps 728 mmHg 60%
    10:00 +21°C° 0 mm 3 mps 728 mmHg 55%
    11:00 +22°C° 0.1 mm 3 mps 727 mmHg 55%
    12:00 +22°C° 0.1 mm 4 mps 727 mmHg 56%
    13:00 +22°C° 0.1 mm 4 mps 727 mmHg 56%
    14:00 +23°C° 0.2 mm 4 mps 726 mmHg 58%
    15:00 +23°C° 0.2 mm 4 mps 726 mmHg 59%
    16:00 +23°C° 0.2 mm 4 mps 726 mmHg 61%
    17:00 +21°C° 0.3 mm 4 mps 725 mmHg 66%
    18:00 +20°C° 0.3 mm 3 mps 725 mmHg 72%
    19:00 +18°C° 0.3 mm 3 mps 725 mmHg 77%
    20:00 +17°C° 0.1 mm 3 mps 725 mmHg 81%
    21:00 +16°C° 0.1 mm 2 mps 725 mmHg 84%
    22:00 +15°C° 0.1 mm 2 mps 726 mmHg 88%
    23:00 +15°C° 0.3 mm 2 mps 726 mmHg 90%
    Show more